| time (UTC) | temp F | wind direction | speed MPH | gust MPH | rain 1hr in | rain 24hr in | rain mn in | humidity % | barometer mb |
| 20260506113303 | 51 | 17 | 9.0 | 11.0 | 0.00 | 0.00 | 0.00 | 82 | 1009.7 |
| 20260506112759 | 51 | 28 | 7.0 | 8.0 | 0.00 | 0.00 | 0.00 | 82 | 1009.4 |
| 20260506112257 | 51 | 55 | 9.0 | 14.0 | 0.00 | 0.00 | 0.00 | 82 | 1009.5 |
| 20260506111754 | 51 | 20 | 8.0 | 10.0 | 0.00 | 0.00 | 0.00 | 81 | 1009.6 |
| 20260506111252 | 51 | 6 | 13.0 | 15.0 | 0.00 | 0.00 | 0.00 | 81 | 1009.6 |
| 20260506110749 | 51 | 41 | 11.0 | 15.0 | 0.00 | 0.00 | 0.00 | 81 | 1009.5 |
| 20260506110247 | 51 | 24 | 10.0 | 14.0 | 0.00 | 0.00 | 0.00 | 81 | 1009.4 |
| 20260506105743 | 52 | 27 | 6.0 | 8.0 | 0.00 | 0.00 | 0.00 | 80 | 1009.5 |
| 20260506105240 | 52 | 36 | 9.0 | 11.0 | 0.00 | 0.00 | 0.00 | 80 | 1009.6 |
| 20260506104738 | 52 | 11 | 8.0 | 10.0 | 0.00 | 0.00 | 0.00 | 80 | 1009.5 |
| 20260506104235 | 52 | 10 | 15.0 | 18.0 | 0.00 | 0.00 | 0.00 | 81 | 1009.6 |
| 20260506103732 | 52 | 50 | 7.0 | 7.0 | 0.00 | 0.00 | 0.00 | 81 | 1009.5 |
| 20260506103229 | 52 | 22 | 7.0 | 7.0 | 0.00 | 0.00 | 0.00 | 81 | 1009.2 |
| 20260506102727 | 52 | 31 | 9.0 | 10.0 | 0.00 | 0.00 | 0.00 | 82 | 1009.4 |
| 20260506102225 | 52 | 35 | 9.0 | 15.0 | 0.00 | 0.00 | 0.00 | 82 | 1009.4 |
| 20260506101721 | 52 | 22 | 7.0 | 10.0 | 0.00 | 0.00 | 0.00 | 83 | 1009.3 |
| 20260506101218 | 52 | 37 | 6.0 | 8.0 | 0.00 | 0.00 | 0.00 | 83 | 1009.2 |
| 20260506100716 | 52 | 24 | 10.0 | 14.0 | 0.00 | 0.00 | 0.00 | 84 | 1009.1 |
| 20260506100214 | 52 | 14 | 9.0 | 11.0 | 0.00 | 0.00 | 0.00 | 85 | 1009.0 |
| 20260506095712 | 52 | 30 | 8.0 | 10.0 | 0.00 | 0.00 | 0.00 | 85 | 1008.9 |
| 20260506095209 | 52 | 27 | 9.0 | 13.0 | 0.00 | 0.00 | 0.00 | 85 | 1008.8 |
| 20260506094706 | 52 | 22 | 4.0 | 4.0 | 0.00 | 0.00 | 0.00 | 85 | 1008.6 |
| 20260506094204 | 52 | 28 | 12.0 | 14.0 | 0.00 | 0.00 | 0.00 | 84 | 1008.8 |
| 20260506093703 | 52 | 39 | 6.0 | 8.0 | 0.00 | 0.00 | 0.00 | 84 | 1008.7 |
| 20260506093159 | 52 | 29 | 6.0 | 8.0 | 0.00 | 0.00 | 0.00 | 84 | 1008.8 |
| 20260506092657 | 52 | 20 | 11.0 | 14.0 | 0.00 | 0.00 | 0.00 | 84 | 1008.6 |
| 20260506092154 | 53 | 35 | 6.0 | 8.0 | 0.00 | 0.00 | 0.00 | 84 | 1008.4 |
| 20260506091652 | 53 | 39 | 7.0 | 13.0 | 0.00 | 0.00 | 0.00 | 84 | 1008.3 |
| 20260506091149 | 53 | 24 | 9.0 | 10.0 | 0.00 | 0.00 | 0.00 | 83 | 1008.6 |
| 20260506090647 | 53 | 12 | 16.0 | 17.0 | 0.00 | 0.00 | 0.00 | 83 | 1008.4 |
| 20260506090143 | 53 | 20 | 6.0 | 8.0 | 0.00 | 0.00 | 0.00 | 83 | 1008.5 |
| 20260506085640 | 53 | 16 | 8.0 | 8.0 | 0.00 | 0.00 | 0.00 | 83 | 1008.6 |
| 20260506085136 | 53 | 52 | 4.0 | 4.0 | 0.00 | 0.00 | 0.00 | 83 | 1008.3 |
| 20260506084633 | 54 | 17 | 6.0 | 7.0 | 0.00 | 0.00 | 0.00 | 82 | 1008.3 |
| 20260506084130 | 54 | 16 | 3.0 | 4.0 | 0.00 | 0.00 | 0.00 | 82 | 1008.2 |
| 20260506083627 | 54 | 30 | 11.0 | 11.0 | 0.00 | 0.00 | 0.00 | 82 | 1008.1 |
| 20260506083124 | 54 | 35 | 5.0 | 7.0 | 0.00 | 0.00 | 0.00 | 81 | 1008.0 |
| 20260506082621 | 54 | 8 | 9.0 | 11.0 | 0.00 | 0.00 | 0.00 | 81 | 1008.3 |
| 20260506082116 | 55 | 26 | 6.0 | 8.0 | 0.00 | 0.00 | 0.00 | 81 | 1008.4 |
| 20260506081615 | 55 | 32 | 5.0 | 6.0 | 0.00 | 0.00 | 0.00 | 80 | 1008.0 |
| 20260506081112 | 55 | 23 | 7.0 | 10.0 | 0.00 | 0.00 | 0.00 | 80 | 1008.3 |
| 20260506080610 | 55 | 30 | 8.0 | 10.0 | 0.00 | 0.00 | 0.00 | 80 | 1008.4 |
| 20260506080106 | 55 | 40 | 10.0 | 13.0 | 0.00 | 0.00 | 0.00 | 79 | 1008.3 |
| 20260506073050 | 57 | 12 | 8.0 | 11.0 | 0.00 | 0.00 | 0.00 | 76 | 1008.3 |
| 20260506072547 | 57 | 30 | 5.0 | 7.0 | 0.00 | 0.00 | 0.00 | 76 | 1008.2 |
| 20260506072045 | 58 | 21 | 6.0 | 7.0 | 0.00 | 0.00 | 0.00 | 75 | 1008.3 |
| 20260506071542 | 58 | 44 | 7.0 | 10.0 | 0.00 | 0.00 | 0.00 | 74 | 1008.2 |
| 20260506071039 | 59 | 30 | 6.0 | 7.0 | 0.00 | 0.00 | 0.00 | 74 | 1008.3 |
| 20260506070536 | 59 | 38 | 5.0 | 6.0 | 0.00 | 0.00 | 0.00 | 73 | 1008.5 |
| 20260506062514 | 60 | 53 | 5.0 | 6.0 | 0.00 | 0.00 | 0.00 | 70 | 1008.1 |
| 20260506062010 | 60 | 41 | 6.0 | 7.0 | 0.00 | 0.00 | 0.00 | 69 | 1007.8 |
| 20260506061506 | 61 | 39 | 4.0 | 4.0 | 0.00 | 0.00 | 0.00 | 69 | 1008.0 |
| 20260506061004 | 61 | 51 | 2.0 | 3.0 | 0.00 | 0.00 | 0.00 | 68 | 1007.7 |
| 20260506060503 | 61 | 64 | 4.0 | 4.0 | 0.00 | 0.00 | 0.00 | 68 | 1007.6 |
| 20260506050931 | 64 | 51 | 4.0 | 7.0 | 0.00 | 0.00 | 0.00 | 63 | 1007.4 |
| 20260506050429 | 64 | 45 | 3.0 | 4.0 | 0.00 | 0.00 | 0.00 | 62 | 1007.5 |
| 20260506044919 | 65 | 17 | 8.0 | 10.0 | 0.00 | 0.00 | 0.00 | 62 | 1007.3 |
| 20260506044418 | 65 | 55 | 4.0 | 6.0 | 0.00 | 0.00 | 0.00 | 64 | 1007.4 |
| 20260506043914 | 65 | 53 | 6.0 | 8.0 | 0.00 | 0.00 | 0.00 | 65 | 1007.6 |
| 20260506043411 | 66 | 28 | 3.0 | 3.0 | 0.00 | 0.00 | 0.00 | 65 | 1007.7 |
| 20260506042909 | 66 | 113 | 3.0 | 4.0 | 0.00 | 0.00 | 0.00 | 64 | 1007.8 |
| 20260506042408 | 66 | 92 | 3.0 | 3.0 | 0.00 | 0.00 | 0.00 | 63 | 1007.7 |
| 20260506041906 | 67 | 46 | 5.0 | 7.0 | 0.00 | 0.00 | 0.00 | 62 | 1007.5 |
| 20260506041403 | 67 | 43 | 6.0 | 7.0 | 0.00 | 0.00 | 0.00 | 61 | 1007.5 |
| 20260506040900 | 67 | 25 | 3.0 | 4.0 | 0.00 | 0.00 | 0.00 | 61 | 1007.7 |
| 20260506040358 | 67 | 44 | 7.0 | 8.0 | 0.00 | 0.00 | 0.00 | 61 | 1007.4 |
| 20260506035854 | 68 | 21 | 5.0 | 6.0 | 0.00 | 0.00 | 0.00 | 61 | 1007.2 |
| 20260506035351 | 68 | 21 | 5.0 | 7.0 | 0.00 | 0.00 | 0.00 | 60 | 1006.9 |
| 20260506034848 | 68 | 44 | 3.0 | 3.0 | 0.00 | 0.00 | 0.00 | 60 | 1006.8 |
| 20260506034345 | 68 | 50 | 3.0 | 4.0 | 0.00 | 0.00 | 0.00 | 60 | 1006.8 |
| 20260506033842 | 68 | 38 | 4.0 | 6.0 | 0.00 | 0.00 | 0.00 | 59 | 1006.8 |
| 20260506033339 | 69 | 46 | 6.0 | 7.0 | 0.00 | 0.00 | 0.00 | 59 | 1006.9 |
| 20260506032836 | 69 | 25 | 5.0 | 6.0 | 0.00 | 0.00 | 0.00 | 59 | 1007.1 |
| 20260506032333 | 69 | 18 | 3.0 | 3.0 | 0.00 | 0.00 | 0.00 | 59 | 1007.0 |
| 20260506031830 | 69 | 30 | 4.0 | 4.0 | 0.00 | 0.00 | 0.00 | 58 | 1006.9 |
| 20260506031327 | 70 | 27 | 4.0 | 6.0 | 0.00 | 0.00 | 0.00 | 58 | 1006.9 |
| 20260506030825 | 70 | 45 | 2.0 | 3.0 | 0.00 | 0.00 | 0.00 | 58 | 1006.8 |
| 20260506030323 | 70 | 33 | 4.0 | 4.0 | 0.00 | 0.00 | 0.00 | 57 | 1006.6 |
| 20260506025819 | 70 | 56 | 6.0 | 7.0 | 0.00 | 0.00 | 0.00 | 56 | 1006.6 |
| 20260506025315 | 70 | 50 | 3.0 | 4.0 | 0.00 | 0.00 | 0.00 | 56 | 1006.6 |
| 20260506024813 | 71 | 38 | 4.0 | 6.0 | 0.00 | 0.00 | 0.00 | 56 | 1006.6 |
| 20260506024309 | 71 | 39 | 4.0 | 6.0 | 0.00 | 0.00 | 0.00 | 56 | 1006.5 |
| 20260506023806 | 71 | 25 | 6.0 | 7.0 | 0.00 | 0.00 | 0.00 | 56 | 1006.5 |
| 20260506023303 | 71 | 25 | 5.0 | 6.0 | 0.00 | 0.00 | 0.00 | 56 | 1006.4 |
| 20260506022759 | 72 | 53 | 5.0 | 8.0 | 0.00 | 0.00 | 0.00 | 55 | 1006.4 |
| 20260506022257 | 72 | 33 | 7.0 | 8.0 | 0.00 | 0.00 | 0.00 | 54 | 1006.3 |
| 20260506021755 | 73 | 11 | 6.0 | 6.0 | 0.00 | 0.00 | 0.00 | 54 | 1006.0 |
| 20260506021252 | 73 | 27 | 7.0 | 7.0 | 0.00 | 0.00 | 0.00 | 54 | 1006.0 |
| 20260506020748 | 73 | 6 | 8.0 | 8.0 | 0.00 | 0.00 | 0.00 | 54 | 1005.9 |
| 20260506020246 | 73 | 21 | 4.0 | 4.0 | 0.00 | 0.00 | 0.00 | 54 | 1005.6 |
| 20260506015744 | 74 | 25 | 5.0 | 6.0 | 0.00 | 0.00 | 0.00 | 53 | 1005.6 |
| 20260506015241 | 74 | 24 | 4.0 | 6.0 | 0.00 | 0.00 | 0.00 | 52 | 1005.5 |
| 20260506014738 | 75 | 9 | 4.0 | 6.0 | 0.00 | 0.00 | 0.00 | 51 | 1005.4 |
| 20260506014234 | 75 | 34 | 6.0 | 7.0 | 0.00 | 0.00 | 0.00 | 51 | 1005.4 |
| 20260506013732 | 76 | 25 | 9.0 | 10.0 | 0.00 | 0.00 | 0.00 | 50 | 1005.0 |
| 20260506013229 | 77 | 4 | 4.0 | 6.0 | 0.00 | 0.00 | 0.00 | 49 | 1005.2 |
| 20260506012725 | 78 | 23 | 8.0 | 10.0 | 0.00 | 0.00 | 0.00 | 47 | 1005.3 |
| 20260506012222 | 79 | 6 | 6.0 | 8.0 | 0.00 | 0.00 | 0.00 | 44 | 1004.9 |
| 20260506011719 | 80 | 5 | 4.0 | 4.0 | 0.00 | 0.00 | 0.00 | 41 | 1004.8 |
| 20260506011215 | 82 | 353 | 6.0 | 7.0 | 0.00 | 0.00 | 0.00 | 37 | 1004.4 |
| 20260506010714 | 83 | 25 | 1.0 | 1.0 | 0.00 | 0.00 | 0.00 | 28 | 1004.4 |
| 20260506010211 | 84 | 15 | 3.0 | 3.0 | 0.00 | 0.00 | 0.00 | 25 | 1004.5 |
| 20260506005708 | 84 | 350 | 6.0 | 7.0 | 0.00 | 0.00 | 0.00 | 24 | 1004.3 |
| 20260506005205 | 84 | 329 | 3.0 | 3.0 | 0.00 | 0.00 | 0.00 | 24 | 1004.1 |
| 20260506004701 | 85 | 268 | 3.0 | 3.0 | 0.00 | 0.00 | 0.00 | 24 | 1004.0 |
| 20260506004159 | 85 | 317 | 7.0 | 8.0 | 0.00 | 0.00 | 0.00 | 23 | 1004.1 |
| 20260506003654 | 84 | 290 | 5.0 | 6.0 | 0.00 | 0.00 | 0.00 | 28 | 1004.1 |
| 20260506003151 | 84 | 282 | 3.0 | 3.0 | 0.00 | 0.00 | 0.00 | 29 | 1003.8 |
| 20260506002647 | 84 | 242 | 2.0 | 3.0 | 0.00 | 0.00 | 0.00 | 30 | 1003.6 |
| 20260506002143 | 85 | 232 | 2.0 | 3.0 | 0.00 | 0.00 | 0.00 | 30 | 1003.6 |
| 20260506001638 | 85 | 258 | 2.0 | 3.0 | 0.00 | 0.00 | 0.00 | 27 | 1003.7 |
| 20260506001136 | 86 | 240 | 2.0 | 1.0 | 0.00 | 0.00 | 0.00 | 27 | 1003.4 |
| 20260506000633 | 86 | 238 | 2.0 | 3.0 | 0.00 | 0.00 | 0.00 | 26 | 1003.7 |
| 20260506000131 | 87 | 237 | 3.0 | 3.0 | 0.00 | 0.00 | 0.00 | 25 | 1003.6 |
| 20260505235629 | 87 | 230 | 3.0 | 3.0 | 0.00 | 0.00 | 0.00 | 24 | 1003.6 |
| 20260505235126 | 87 | 230 | 4.0 | 4.0 | 0.00 | 0.00 | 0.00 | 24 | 1003.7 |
| 20260505234622 | 87 | 235 | 7.0 | 8.0 | 0.00 | 0.00 | 0.00 | 22 | 1003.6 |
| 20260505234119 | 87 | 238 | 4.0 | 4.0 | 0.00 | 0.00 | 0.00 | 23 | 1003.6 |
| 20260505233617 | 88 | 252 | 5.0 | 6.0 | 0.00 | 0.00 | 0.00 | 24 | 1003.5 |
| 20260505233114 | 88 | 243 | 6.0 | 7.0 | 0.00 | 0.00 | 0.00 | 23 | 1003.5 |
| 20260505232612 | 89 | 268 | 3.0 | 3.0 | 0.00 | 0.00 | 0.00 | 24 | 1003.6 |
| 20260505232109 | 89 | 240 | 6.0 | 7.0 | 0.00 | 0.00 | 0.00 | 22 | 1003.6 |
| 20260505231606 | 90 | 247 | 8.0 | 8.0 | 0.00 | 0.00 | 0.00 | 21 | 1003.7 |
| 20260505231104 | 91 | 273 | 6.0 | 6.0 | 0.00 | 0.00 | 0.00 | 22 | 1003.7 |
| 20260505230602 | 90 | 270 | 6.0 | 7.0 | 0.00 | 0.00 | 0.00 | 22 | 1003.5 |
| 20260505230058 | 90 | 251 | 6.0 | 7.0 | 0.00 | 0.00 | 0.00 | 23 | 1003.8 |
| 20260505225555 | 90 | 253 | 4.0 | 6.0 | 0.00 | 0.00 | 0.00 | 25 | 1004.0 |
| 20260505225051 | 90 | 238 | 5.0 | 7.0 | 0.00 | 0.00 | 0.00 | 23 | 1003.8 |
| 20260505224548 | 90 | 256 | 7.0 | 8.0 | 0.00 | 0.00 | 0.00 | 23 | 1004.0 |
| 20260505224045 | 90 | 256 | 7.0 | 8.0 | 0.00 | 0.00 | 0.00 | 22 | 1003.9 |
| 20260505223542 | 91 | 276 | 10.0 | 11.0 | 0.00 | 0.00 | 0.00 | 22 | 1003.8 |
| 20260505223038 | 91 | 237 | 11.0 | 11.0 | 0.00 | 0.00 | 0.00 | 22 | 1004.0 |
| 20260505222534 | 91 | 237 | 13.0 | 14.0 | 0.00 | 0.00 | 0.00 | 23 | 1003.8 |
| 20260505222031 | 91 | 261 | 4.0 | 4.0 | 0.00 | 0.00 | 0.00 | 25 | 1003.5 |
| 20260505221528 | 91 | 257 | 9.0 | 11.0 | 0.00 | 0.00 | 0.00 | 23 | 1003.6 |
| 20260505221025 | 90 | 269 | 8.0 | 10.0 | 0.00 | 0.00 | 0.00 | 24 | 1003.7 |
| 20260505220522 | 91 | 232 | 9.0 | 10.0 | 0.00 | 0.00 | 0.00 | 24 | 1003.6 |
| 20260505220020 | 91 | 291 | 7.0 | 10.0 | 0.00 | 0.00 | 0.00 | 23 | 1003.8 |
| 20260505215518 | 90 | 264 | 11.0 | 14.0 | 0.00 | 0.00 | 0.00 | 24 | 1004.0 |
| 20260505215015 | 90 | 259 | 9.0 | 10.0 | 0.00 | 0.00 | 0.00 | 23 | 1003.9 |
| 20260505214513 | 90 | 268 | 12.0 | 14.0 | 0.00 | 0.00 | 0.00 | 22 | 1003.9 |
| 20260505214010 | 90 | 263 | 9.0 | 13.0 | 0.00 | 0.00 | 0.00 | 24 | 1003.9 |
| 20260505213508 | 90 | 223 | 9.0 | 10.0 | 0.00 | 0.00 | 0.00 | 24 | 1004.0 |
| 20260505213004 | 90 | 240 | 10.0 | 11.0 | 0.00 | 0.00 | 0.00 | 24 | 1004.3 |
| 20260505212500 | 90 | 262 | 14.0 | 17.0 | 0.00 | 0.00 | 0.00 | 24 | 1004.4 |
| 20260505211957 | 90 | 280 | 13.0 | 15.0 | 0.00 | 0.00 | 0.00 | 24 | 1004.0 |
| 20260505211454 | 90 | 282 | 8.0 | 10.0 | 0.00 | 0.00 | 0.00 | 27 | 1004.1 |
| 20260505210950 | 89 | 296 | 14.0 | 15.0 | 0.00 | 0.00 | 0.00 | 25 | 1004.1 |
| 20260505210448 | 89 | 250 | 7.0 | 8.0 | 0.00 | 0.00 | 0.00 | 27 | 1004.0 |
| 20260505205944 | 89 | 286 | 7.0 | 10.0 | 0.00 | 0.00 | 0.00 | 29 | 1004.3 |
| 20260505205443 | 88 | 299 | 9.0 | 10.0 | 0.00 | 0.00 | 0.00 | 27 | 1004.3 |
| 20260505204939 | 88 | 269 | 10.0 | 10.0 | 0.00 | 0.00 | 0.00 | 28 | 1004.4 |
| 20260505204437 | 89 | 275 | 9.0 | 10.0 | 0.00 | 0.00 | 0.00 | 28 | 1004.5 |
| 20260505203934 | 89 | 229 | 8.0 | 8.0 | 0.00 | 0.00 | 0.00 | 28 | 1004.5 |
| 20260505203431 | 88 | 287 | 5.0 | 6.0 | 0.00 | 0.00 | 0.00 | 29 | 1004.5 |
| 20260505202927 | 88 | 253 | 7.0 | 8.0 | 0.00 | 0.00 | 0.00 | 30 | 1004.6 |
| 20260505202424 | 88 | 248 | 7.0 | 8.0 | 0.00 | 0.00 | 0.00 | 31 | 1004.6 |
| 20260505201920 | 88 | 254 | 9.0 | 10.0 | 0.00 | 0.00 | 0.00 | 31 | 1004.8 |
| 20260505201417 | 88 | 268 | 8.0 | 10.0 | 0.00 | 0.00 | 0.00 | 33 | 1004.7 |
| 20260505200915 | 88 | 268 | 7.0 | 8.0 | 0.00 | 0.00 | 0.00 | 34 | 1004.8 |
| 20260505200412 | 88 | 250 | 7.0 | 8.0 | 0.00 | 0.00 | 0.00 | 34 | 1004.9 |
| 20260505195908 | 88 | 260 | 8.0 | 10.0 | 0.00 | 0.00 | 0.00 | 35 | 1004.8 |
| 20260505195405 | 88 | 262 | 8.0 | 10.0 | 0.00 | 0.00 | 0.00 | 36 | 1004.8 |
| 20260505194902 | 88 | 334 | 5.0 | 7.0 | 0.00 | 0.00 | 0.00 | 33 | 1004.9 |
| 20260505194400 | 88 | 234 | 9.0 | 10.0 | 0.00 | 0.00 | 0.00 | 33 | 1005.0 |
| 20260505193900 | 88 | 246 | 5.0 | 6.0 | 0.00 | 0.00 | 0.00 | 37 | 1005.1 |
| 20260505193358 | 88 | 280 | 8.0 | 8.0 | 0.00 | 0.00 | 0.00 | 36 | 1005.1 |
| 20260505192855 | 88 | 231 | 8.0 | 10.0 | 0.00 | 0.00 | 0.00 | 38 | 1005.1 |
| 20260505192353 | 87 | 230 | 6.0 | 8.0 | 0.00 | 0.00 | 0.00 | 40 | 1005.3 |
| 20260505191851 | 87 | 257 | 14.0 | 15.0 | 0.00 | 0.00 | 0.00 | 40 | 1005.1 |
| 20260505191349 | 87 | 270 | 7.0 | 10.0 | 0.00 | 0.00 | 0.00 | 40 | 1005.3 |
| 20260505190846 | 87 | 222 | 6.0 | 6.0 | 0.00 | 0.00 | 0.00 | 41 | 1005.1 |
| 20260505190341 | 86 | 243 | 6.0 | 6.0 | 0.00 | 0.00 | 0.00 | 41 | 1005.1 |
| 20260505185837 | 86 | 219 | 5.0 | 6.0 | 0.00 | 0.00 | 0.00 | 43 | 1005.4 |
| 20260505185334 | 86 | 224 | 11.0 | 13.0 | 0.00 | 0.00 | 0.00 | 40 | 1005.5 |
| 20260505184830 | 86 | 285 | 6.0 | 8.0 | 0.00 | 0.00 | 0.00 | 42 | 1005.6 |
| 20260505184327 | 86 | 269 | 6.0 | 8.0 | 0.00 | 0.00 | 0.00 | 40 | 1005.6 |
| 20260505183824 | 85 | 232 | 5.0 | 6.0 | 0.00 | 0.00 | 0.00 | 42 | 1005.8 |
| 20260505183321 | 85 | 224 | 9.0 | 10.0 | 0.00 | 0.00 | 0.00 | 44 | 1005.7 |
| 20260505182817 | 85 | 270 | 7.0 | 8.0 | 0.00 | 0.00 | 0.00 | 45 | 1005.8 |
| 20260505182314 | 85 | 251 | 6.0 | 6.0 | 0.00 | 0.00 | 0.00 | 42 | 1005.7 |
| 20260505181811 | 85 | 259 | 13.0 | 15.0 | 0.00 | 0.00 | 0.00 | 43 | 1005.7 |
| 20260505181308 | 84 | 271 | 6.0 | 8.0 | 0.00 | 0.00 | 0.00 | 47 | 1005.9 |
| 20260505180805 | 85 | 252 | 4.0 | 6.0 | 0.00 | 0.00 | 0.00 | 47 | 1005.9 |
| 20260505180301 | 84 | 270 | 9.0 | 10.0 | 0.00 | 0.00 | 0.00 | 44 | 1006.0 |
| 20260505175758 | 85 | 279 | 8.0 | 10.0 | 0.00 | 0.00 | 0.00 | 47 | 1006.2 |
| 20260505175254 | 84 | 241 | 10.0 | 11.0 | 0.00 | 0.00 | 0.00 | 46 | 1005.9 |
| 20260505174751 | 83 | 241 | 11.0 | 13.0 | 0.00 | 0.00 | 0.00 | 44 | 1006.3 |
| 20260505174248 | 83 | 228 | 15.0 | 19.0 | 0.00 | 0.00 | 0.00 | 47 | 1006.2 |
| 20260505173744 | 84 | 265 | 8.0 | 10.0 | 0.00 | 0.00 | 0.00 | 50 | 1006.3 |
| 20260505173241 | 83 | 246 | 8.0 | 10.0 | 0.00 | 0.00 | 0.00 | 53 | 1006.0 |
| 20260505172738 | 83 | 241 | 9.0 | 10.0 | 0.00 | 0.00 | 0.00 | 52 | 1006.0 |
| 20260505172235 | 82 | 272 | 10.0 | 11.0 | 0.00 | 0.00 | 0.00 | 51 | 1006.4 |
| 20260505171735 | 82 | 245 | 7.0 | 8.0 | 0.00 | 0.00 | 0.00 | 53 | 1006.2 |
| 20260505171232 | 82 | 228 | 9.0 | 11.0 | 0.00 | 0.00 | 0.00 | 54 | 1006.3 |
| 20260505170728 | 81 | 261 | 9.0 | 10.0 | 0.00 | 0.00 | 0.00 | 56 | 1006.0 |
| 20260505170226 | 81 | 220 | 11.0 | 13.0 | 0.00 | 0.00 | 0.00 | 57 | 1006.0 |
| 20260505165721 | 81 | 243 | 7.0 | 7.0 | 0.00 | 0.00 | 0.00 | 58 | 1006.3 |
| 20260505165217 | 81 | 240 | 9.0 | 11.0 | 0.00 | 0.00 | 0.00 | 57 | 1006.4 |
| 20260505164713 | 81 | 196 | 8.0 | 8.0 | 0.00 | 0.00 | 0.00 | 59 | 1006.2 |
| 20260505164210 | 80 | 215 | 9.0 | 10.0 | 0.00 | 0.00 | 0.00 | 58 | 1006.2 |
| 20260505163708 | 80 | 276 | 11.0 | 13.0 | 0.00 | 0.00 | 0.00 | 60 | 1006.3 |
| 20260505163206 | 80 | 237 | 9.0 | 11.0 | 0.00 | 0.00 | 0.00 | 61 | 1006.4 |
| 20260505162703 | 79 | 265 | 11.0 | 11.0 | 0.00 | 0.00 | 0.00 | 62 | 1006.3 |
| 20260505162201 | 79 | 254 | 11.0 | 13.0 | 0.00 | 0.00 | 0.00 | 61 | 1006.3 |
| 20260505161657 | 78 | 279 | 12.0 | 15.0 | 0.00 | 0.00 | 0.00 | 63 | 1006.3 |
| 20260505161154 | 78 | 251 | 9.0 | 13.0 | 0.00 | 0.00 | 0.00 | 66 | 1006.2 |
| 20260505160652 | 78 | 253 | 9.0 | 11.0 | 0.00 | 0.00 | 0.00 | 64 | 1006.3 |
| 20260505160150 | 78 | 249 | 9.0 | 11.0 | 0.00 | 0.00 | 0.00 | 64 | 1005.9 |
| 20260505153129 | 75 | 242 | 8.0 | 8.0 | 0.00 | 0.00 | 0.00 | 71 | 1005.7 |
| 20260505152625 | 75 | 220 | 15.0 | 18.0 | 0.00 | 0.00 | 0.00 | 70 | 1005.7 |
| 20260505152121 | 74 | 245 | 9.0 | 8.0 | 0.00 | 0.00 | 0.00 | 72 | 1005.7 |
| 20260505151617 | 74 | 217 | 10.0 | 11.0 | 0.00 | 0.00 | 0.00 | 72 | 1005.7 |
| 20260505151114 | 74 | 226 | 10.0 | 13.0 | 0.00 | 0.00 | 0.00 | 72 | 1005.7 |
| 20260505150610 | 73 | 240 | 10.0 | 11.0 | 0.00 | 0.00 | 0.00 | 73 | 1005.7 |
| 20260505150107 | 73 | 237 | 15.0 | 15.0 | 0.00 | 0.00 | 0.00 | 73 | 1005.6 |
| 20260505140536 | 71 | 277 | 10.0 | 13.0 | 0.00 | 0.00 | 0.00 | 76 | 1005.9 |
| 20260505124949 | 68 | 267 | 8.0 | 8.0 | 0.00 | 0.00 | 0.00 | 81 | 1005.0 |
| 20260505124446 | 68 | 261 | 11.0 | 14.0 | 0.00 | 0.00 | 0.00 | 81 | 1005.1 |
| 20260505123942 | 68 | 231 | 9.0 | 10.0 | 0.00 | 0.00 | 0.00 | 81 | 1004.8 |
| 20260505123439 | 68 | 269 | 9.0 | 10.0 | 0.00 | 0.00 | 0.00 | 81 | 1004.9 |
| 20260505122935 | 68 | 272 | 9.0 | 11.0 | 0.00 | 0.00 | 0.00 | 82 | 1004.6 |
| 20260505122432 | 68 | 264 | 7.0 | 10.0 | 0.00 | 0.00 | 0.00 | 82 | 1004.7 |
| 20260505121929 | 68 | 258 | 8.0 | 8.0 | 0.00 | 0.00 | 0.00 | 81 | 1004.6 |
| 20260505121426 | 67 | 258 | 9.0 | 11.0 | 0.00 | 0.00 | 0.00 | 82 | 1004.6 |
| 20260505120922 | 67 | 208 | 7.0 | 8.0 | 0.00 | 0.00 | 0.00 | 82 | 1004.5 |
| 20260505120418 | 67 | 241 | 9.0 | 10.0 | 0.00 | 0.00 | 0.00 | 82 | 1004.4 |
| 20260505115917 | 67 | 243 | 9.0 | 13.0 | 0.00 | 0.00 | 0.00 | 82 | 1004.6 |
| 20260505115414 | 67 | 218 | 10.0 | 11.0 | 0.00 | 0.00 | 0.00 | 82 | 1004.5 |
| 20260505114912 | 67 | 223 | 9.0 | 10.0 | 0.00 | 0.00 | 0.00 | 83 | 1004.3 |
| 20260505114408 | 67 | 248 | 10.0 | 11.0 | 0.00 | 0.00 | 0.00 | 83 | 1004.5 |
| 20260505113904 | 66 | 224 | 11.0 | 13.0 | 0.00 | 0.00 | 0.00 | 83 | 1004.4 |